COSMOS 249 DEB, 15775

Orbit data source: Space-Track

COSMOS 249 DEB, 15775 is space debris in LEO originally from a launch on Sun, 20 Oct 1968 UTC launched from the Tyuratam Missile And Space Complex (TTMTR). Debris objects in space refer to the collection of defunct objects orbiting the Earth. Examples of debris include non-operational satellites, rocket bodies, and fragments generated from explosions, collisions, or faulty payload assembly.

Loading next visibility...
Identifier
15775, 1968-091DA
Orbit
LEO
Country
Flag of CISCIS
Related business
Manufacturer
Unknown
Mission
Spacecraft
Bus & Motor
Unknown
Mass
Unknown
Launch date (UTC)
1968-10-20 (58 years ago)
Launch vehicle
Unknown
Launch site
Tyuratam Missile And Space Complex (TTMTR)
Object type
Payload
Rocket body
Debris
Shape & HBR
Unknown shape, 1.1 m
Radar Cross Section
Medium (>0.1 m² and <1 m²)

Expand to show TLE details & history
Last TLE update: 3 days ago

TLE from 3 days ago
0 COSMOS 249 DEB
1 15775U 68091DA  26199.47332716  .00000069  00000-0  18580-3 0  9999
2 15775  62.2992   1.5041 0662263 334.9096  22.1019 12.99315136571656
Epoch: 2026-07-18T11:21Z
TLE epoch observation values (Epoch: 2026-07-18T11:21:35.466Z)
Latitude
-0.00004°
Longitude
-105.17927°
Altitude
802.65 km
Speed
7.675 km/s
True Right ascension
00h 06m 00s
True Declination
0° 00' 00"
Sunlit
Object was in daylight at epoch
Visualization orbit readout
Latitude
Unknown
Longitude
Unknown
Altitude
Unknown
Speed
Unknown
Apparent Right ascension
Unknown
Apparent Declination
Unknown
Sunlit
N/A
Visualization observer readout
Local Sidereal Time
05:08:59
Azimuth
Unknown
Elevation
Unknown
Doppler factor
Unknown
Orbital elements
Apogee altitude
1,769.854 km
Perigee altitude
757.665 km
Semi-major axis
7,641.896 km
Eccentricity
0.06623
Inclination
62.2992°
RAAN
1.5041°
Arg. of periapsis
334.9096°
True anomaly
25.19211°
Mean anomaly
22.1019°
Eccentric anomaly
23.62238°
Mean motion
3.24894 °/min
Orbital period
110.81 mins
BSTAR
0.0001858
Loading maneuver chart data...
Computing Atmospheric mass density...

Documentation

Showing up to 5 results
|